Wind_Gust
11 12 9 7 4 6 5 5 3 4 4 3 5 5 5 7 8 8 9 10 11 9 10 11 10 7 9 8 9 9 10 11 10 10 8 9 7 7 8 8 7 7 6 3 5 5 8 12 15 8 3 3 4 4 7 7 6 8 8 8 10 10 10
8 7 6 5 8 5 6 2 4 3 5 3 4 5 4 5 6 8 9 10 11 10 9 10 8 8 9 9 10 11 11 10 9 7 9 9 8 9 7 9 7 8 6 4 4 5 6 8 10 6 13 10 9 4 3 3 5 7 9 10 12 12 12
4 3 5 7 6 5 6 4 3 4 3 5 5 6 5 5 7 7 9 9 9 9 9 9 7 8 8 9 8 9 8 9 7 8 9 7 8 9 10 8 9 8 7 7 8 11 7 7 11 12 10 12 16 11 8 8 6 6 7 7 8 11 12
7 8 8 5 6 4 7 6 5 5 2 5 6 6 4 5 7 7 9 7 7 8 9 8 8 8 7 8 8 8 9 9 8 8 8 7 7 9 10 10 10 9 8 7 9 9 7 8 10 10 11 10 13 18 11 8 10 9 8 8 8 9 11
13 12 12 12 11 10 8 8 5 3 3 2 3 6 5 4 8 8 8 8 9 8 8 7 8 8 7 7 8 8 8 7 7 9 8 8 7 8 8 7 8 6 8 8 8 8 8 9 9 11 10 12 11 10 13 11 10 11 10 8 8 9 9
12 13 12 12 10 12 10 8 7 8 4 4 4 5 5 5 7 8 8 10 9 8 7 6 6 7 8 8 7 7 7 7 8 8 9 7 7 8 7 6 6 7 7 6 7 7 7 8 8 9 9 8 11 14 11 8 13 8 11 12 10 8 9
11 11 11 13 12 11 12 12 12 12 11 10 8 8 8 7 4 5 8 9 9 8 7 7 6 6 7 8 7 7 6 5 7 8 7 6 7 6 6 7 6 6 6 6 6 7 9 9 8 9 12 12 10 15 12 7 5 10 8 6 6 7 8
12 12 12 11 12 11 9 10 10 8 10 9 11 7 8 7 7 7 8 9 8 8 7 7 7 7 6 7 6 7 5 6 6 7 7 5 6 5 5 5 6 7 6 7 7 8 8 9 10 11 11 15 13 10 13 10 10 11 15 8 9 9 9
10 9 8 7 8 10 12 12 12 11 11 9 7 8 7 9 9 9 8 8 8 8 7 8 8 8 6 8 7 7 6 3 6 5 5 5 4 3 3 4 5 5 6 6 6 6 7 8 9 9 10 11 15 20 10 17 13 14 8 11 7 8 8
10 11 13 12 11 9 9 10 11 11 8 8 9 7 10 7 10 11 10 9 8 7 6 6 8 7 7 7 7 6 7 5 6 5 5 3 1 2 4 2 3 3 5 5 5 5 6 7 7 8 8 10 12 14 18 16 15 14 7 5 10 8 7
14 13 11 12 10 10 8 8 5 7 10 10 9 9 9 10 9 10 10 8 8 6 6 6 6 6 6 6 4 4 5 6 5 5 6 5 3 4 3 3 2 4 5 5 6 6 6 6 7 8 8 9 9 12 12 16 23 12 15 9 13 16 7
12 12 10 9 9 11 12 11 11 11 7 7 8 9 9 9 9 8 9 8 7 7 6 7 7 6 5 6 2 5 4 4 3 2 4 2 3 3 3 4 4 5 6 6 6 7 6 6 7 7 7 7 9 11 13 13 25 16 9 9 8 8 10
14 14 13 12 13 14 13 13 11 8 12 10 10 11 11 11 9 9 7 9 7 7 7 6 7 7 7 6 5 4 4 5 4 2 5 6 6 5 5 6 6 6 6 5 6 7 7 7 6 6 6 7 8 9 12 15 18 25 10 14 15 13 11
13 13 11 12 14 14 12 12 13 12 9 11 11 12 11 11 10 9 8 7 6 6 5 6 5 7 6 6 6 4 6 6 4 3 2 5 6 6 7 8 9 9 7 6 7 7 7 7 7 6 5 6 8 8 10 13 18 20 21 8 12 13 10
15 13 13 14 15 14 13 13 11 8 11 10 11 13 12 10 9 9 8 6 5 5 5 6 6 6 7 6 5 5 6 6 4 3 3 3 5 5 5 7 9 10 9 9 8 8 8 7 7 7 7 7 7 9 8 14 15 16 26 18 12 9 13
14 13 15 15 15 14 12 9 10 12 11 10 7 10 11 11 10 9 7 7 6 5 4 5 5 7 7 6 4 3 4 4 3 2 2 5 6 5 6 6 8 8 7 8 8 8 7 8 8 8 8 7 9 9 9 10 14 17 17 21 13 17 12
14 15 17 18 16 14 12 11 11 11 10 10 12 7 9 11 10 9 8 6 6 5 5 5 5 5 7 6 5 2 2 3 3 3 4 5 6 6 7 7 8 8 8 8 9 8 8 8 8 8 9 9 9 10 9 8 11 15 16 21 15 16 16
15 16 18 16 15 14 14 14 13 13 13 12 10 10 7 8 10 9 9 7 6 5 6 6 7 6 5 5 4 4 3 2 2 3 5 6 6 6 7 7 8 7 8 9 9 9 8 9 9 10 14 14 13 12 11 11 11 11 16 20 22 17 13
18 21 18 14 15 16 17 16 16 15 17 16 12 11 12 9 10 9 8 8 7 6 6 6 5 3 5 4 4 3 2 2 3 4 6 7 8 8 8 9 9 8 7 8 9 9 8 9 8 11 12 15 16 15 15 11 9 11 15 20 21 26 13
14 10 13 20 15 14 17 18 18 19 17 18 17 14 10 11 7 10 9 9 9 8 6 5 5 3 3 3 3 2 3 4 5 6 6 8 9 9 9 9 9 9 10 9 10 10 11 10 11 12 12 12 14 15 16 16 14 16 16 17 21 20 24
15 17 14 11 10 13 14 16 18 18 18 18 18 17 15 12 9 9 11 10 8 8 8 7 5 4 3 2 2 2 3 4 6 7 7 8 8 9 10 10 10 11 11 11 10 11 10 12 9 11 10 12 12 13 14 13 13 14 18 21 22 22 20
12 14 12 9 8 7 11 19 17 16 17 16 16 16 14 13 13 9 7 9 9 8 10 8 7 6 4 2 2 2 4 5 7 8 8 8 9 9 10 10 11 11 13 14 14 14 12 11 13 12 10 10 11 14 15 16 19 15 16 20 25 22 22
12 12 10 9 10 15 19 20 16 17 16 16 16 15 14 12 13 13 11 8 9 9 8 7 6 8 5 3 4 3 4 5 6 7 8 9 9 10 10 10 12 15 16 16 16 16 16 16 15 15 14 10 11 13 14 16 17 16 16 19 23 23 25
11 12 12 15 21 24 26 26 22 17 12 14 16 15 16 15 12 12 12 12 11 9 9 7 8 7 7 7 5 5 5 6 6 7 8 9 11 12 11 11 11 12 14 13 17 16 16 17 16 17 18 16 13 15 14 16 16 14 18 22 23 23 24
9 11 16 18 19 18 18 18 17 17 19 16 14 15 17 16 15 13 12 11 11 10 9 7 9 8 8 7 5 4 4 5 6 7 9 11 12 12 13 14 12 12 13 14 15 15 15 16 17 18 18 18 18 19 17 19 20 18 16 20 22 24 23
11 13 15 16 17 18 19 17 18 20 21 18 15 16 16 16 16 15 15 14 11 9 8 8 10 9 7 6 6 4 5 6 8 9 10 12 12 13 14 14 14 12 12 14 19 16 16 16 14 17 18 18 19 19 18 19 19 22 18 21 22 24 24
11 13 14 15 16 18 20 21 20 19 18 16 17 14 14 16 15 15 14 13 11 9 7 7 9 7 4 4 7 6 5 7 8 10 11 13 13 14 14 15 16 15 12 12 14 15 16 16 17 17 17 17 18 17 17 19 20 22 22 23 21 25 21
11 11 13 14 16 19 21 19 18 17 20 21 19 18 18 16 15 14 12 11 11 9 8 6 3 2 4 6 9 7 7 8 9 11 12 12 14 14 14 15 15 17 15 14 13 14 16 16 17 19 18 19 18 18 17 17 16 16 18 19 21 23 22
12 12 14 15 18 20 18 19 19 16 16 14 13 14 10 13 14 12 11 10 9 7 5 3 2 3 5 7 10 8 8 9 10 12 13 13 13 13 13 14 15 18 18 17 13 17 18 21 22 24 24 21 20 19 20 14 17 17 23 21 19 20 19
13 14 16 18 19 16 15 14 13 14 17 15 16 15 16 13 13 14 11 10 10 6 3 3 2 4 5 9 8 8 8 10 11 13 14 13 13 13 13 13 15 20 19 20 16 17 17 18 24 25 25 23 23 20 22 16 16 18 19 22 23 24 24
14 15 13 16 15 13 11 13 17 18 21 18 16 15 14 13 11 12 13 11 9 8 4 4 3 5 7 9 9 9 10 11 12 14 15 13 13 13 13 20 21 21 18 18 13 16 16 20 23 23 22 25 29 28 25 17 17 19 16 21 24 25 26
15 15 14 11 9 8 8 15 15 13 17 17 16 13 13 13 10 8 9 10 9 8 6 4 4 5 7 9 10 7 10 10 14 15 16 17 14 16 16 15 21 23 23 23 20 20 21 23 26 26 28 30 33 32 29 18 18 19 18 23 24 25 24
12 12 13 15 19 17 16 14 12 12 11 14 15 12 11 12 12 9 8 10 8 8 7 6 5 6 7 10 11 10 8 11 15 17 16 18 18 15 17 17 18 17 19 22 22 23 22 23 26 28 28 30 32 34 24 19 21 23 26 27 27 27 30
14 14 14 14 12 12 17 19 16 13 11 9 11 10 10 9 11 9 7 7 8 7 8 6 6 6 9 11 11 9 7 11 14 16 17 19 17 18 18 17 16 16 19 20 21 23 24 23 24 27 29 31 31 31 24 31 33 22 33 31 30 30 28
18 18 16 18 20 18 13 13 13 13 12 12 11 10 8 9 10 9 6 5 6 8 7 7 5 9 11 11 10 11 10 11 15 18 21 17 18 18 18 20 19 18 19 21 21 23 24 24 25 28 30 24 26 25 36 28 29 27 29 30 28 30 31
18 18 18 19 20 16 15 17 13 11 11 9 9 9 9 7 7 7 4 5 5 6 6 5 7 8 10 11 12 13 14 15 16 18 20 22 19 25 22 24 25 23 21 21 23 24 25 26 25 31 27 27 28 29 29 29 27 31 33 30 29 29 29
18 18 19 18 18 20 17 14 12 12 12 12 10 9 7 7 5 4 2 7 6 6 5 5 8 9 11 12 13 14 16 17 18 19 20 21 21 24 25 24 24 23 26 27 29 29 29 28 31 28 29 30 29 27 30 33 28 31 28 32 32 33 34
Wind_Speed
7 7 5 4 2 3 3 3 2 3 3 2 3 4 4 4 5 5 6 6 7 6 6 6 6 4 5 5 5 6 6 6 6 6 5 5 4 3 5 5 4 3 1 1 2 1 3 4 5 4 1 1 2 2 4 4 3 4 4 4 5 5 5
3 3 4 3 4 3 4 2 3 2 3 2 2 3 3 4 4 5 6 6 7 6 5 6 5 5 6 6 6 6 6 6 5 5 5 4 5 5 4 5 4 4 2 2 1 2 2 2 3 2 6 5 5 1 1 1 3 4 5 5 5 6 6
2 2 4 5 4 3 4 3 3 3 2 3 3 4 3 4 5 5 6 6 6 6 5 5 5 5 5 6 5 5 5 6 5 5 5 4 4 5 5 3 5 4 4 3 4 5 3 3 4 5 5 7 8 4 5 5 4 4 4 4 5 5 6
4 4 5 4 4 3 4 4 4 4 2 3 3 4 3 4 4 4 6 5 4 5 5 6 5 5 5 5 5 6 6 6 5 5 5 5 4 5 6 5 5 4 4 3 4 4 3 2 4 4 5 5 6 9 5 5 5 5 4 4 5 5 5
7 6 7 7 7 7 5 5 3 3 2 2 2 4 3 3 5 5 5 5 5 5 5 5 5 5 5 5 5 5 5 5 5 5 5 5 5 5 5 4 4 3 4 4 3 4 4 4 4 5 4 5 5 4 6 6 6 5 5 4 4 4 5
7 7 7 7 6 7 6 5 5 5 3 3 2 4 3 4 4 6 5 6 5 4 4 4 4 5 5 5 5 5 5 5 5 5 5 5 5 5 4 3 3 4 3 3 3 3 3 4 4 4 3 4 5 6 5 4 4 4 5 6 5 4 4
7 7 6 7 7 6 7 7 7 7 7 6 5 5 5 4 3 4 5 6 6 5 5 5 4 4 5 5 4 5 4 3 4 5 5 4 4 4 3 4 4 3 3 3 3 3 4 4 3 4 5 4 5 6 4 2 2 3 3 2 3 3 4
7 7 7 6 6 6 6 6 6 5 6 6 7 5 5 5 5 5 5 6 5 5 5 4 4 5 5 4 4 5 4 3 4 4 4 4 4 4 4 3 3 3 3 3 3 4 4 4 5 5 5 7 5 4 6 4 5 6 7 3 4 4 5
6 6 5 4 5 6 7 7 7 7 7 6 4 5 5 6 6 6 5 6 5 5 5 5 5 5 4 5 4 5 4 1 4 4 3 3 3 2 2 2 3 3 3 3 3 3 3 3 4 4 5 5 7 9 4 7 6 6 5 4 2 4 3
7 7 8 8 7 6 5 6 6 7 5 5 6 4 6 5 6 7 6 6 5 5 4 4 5 5 5 5 4 4 5 3 4 4 3 2 1 0 2 1 1 1 2 2 2 2 3 3 3 4 3 5 5 6 7 6 6 5 3 1 3 2 4
9 8 7 7 6 6 5 5 3 4 6 6 5 5 5 6 6 6 7 5 5 4 4 4 5 4 4 4 3 3 4 4 3 3 3 3 1 2 1 1 0 2 2 2 3 3 3 3 4 4 4 4 4 6 5 7 9 5 6 5 6 5 3
8 7 7 6 6 7 8 7 7 7 5 5 5 5 5 6 6 5 6 6 5 5 5 5 5 4 4 4 2 3 2 2 2 1 1 1 1 1 1 2 2 3 3 3 3 3 3 3 3 3 3 3 4 5 6 6 10 5 3 4 3 4 5
8 9 8 7 7 8 8 8 7 5 7 6 6 7 7 7 6 6 5 6 5 5 5 5 5 5 5 4 3 3 3 3 2 1 3 3 3 3 3 3 3 3 3 2 3 3 3 3 3 2 2 3 4 4 6 7 9 12 3 6 7 7 7
8 8 7 8 9 9 8 8 8 7 6 7 7 7 7 7 7 6 6 4 4 4 3 5 4 5 4 4 4 3 4 4 3 2 0 3 3 4 4 5 5 5 4 3 3 3 3 4 3 3 2 2 3 3 5 6 8 10 9 4 6 6 6
8 7 9 9 9 9 8 8 6 5 7 6 7 8 8 6 6 6 5 4 4 4 4 5 4 4 5 4 4 3 4 4 3 1 2 2 3 3 3 4 6 6 5 5 5 4 4 4 4 3 3 2 3 4 4 6 7 8 13 9 6 5 6
8 8 9 9 10 9 7 6 6 8 7 6 5 6 7 7 7 6 5 5 4 4 3 4 4 5 5 4 3 2 3 2 2 1 1 2 3 3 3 3 5 5 4 5 5 5 4 4 4 4 4 3 4 4 5 5 6 8 9 10 6 8 6
9 9 11 11 11 9 8 7 7 7 7 6 7 4 6 7 7 6 5 4 4 4 4 4 4 4 5 4 3 2 1 1 1 1 2 3 3 3 4 4 4 5 5 5 5 5 5 5 4 4 5 5 5 5 4 4 6 7 7 10 7 7 7
9 10 12 10 10 8 8 8 8 8 8 8 6 7 5 5 6 6 6 5 4 4 5 5 5 4 4 4 3 2 2 1 1 1 3 3 3 4 4 4 5 4 5 6 6 5 5 6 5 5 7 7 6 6 5 6 6 5 8 10 10 6 6
11 12 8 4 6 7 7 8 9 9 10 10 8 7 8 6 6 6 6 5 5 5 4 5 4 3 3 3 3 1 1 0 2 3 4 4 4 5 5 5 5 5 4 5 5 5 5 6 4 5 7 8 8 8 8 6 5 6 8 11 10 11 5
8 6 8 12 9 8 9 10 10 10 10 11 10 9 7 7 4 7 6 6 6 6 5 4 3 3 3 2 1 1 2 3 4 4 4 5 5 5 6 6 6 6 6 6 6 6 6 6 5 7 7 7 8 8 8 8 7 8 8 8 10 9 9
10 10 9 7 6 5 2 2 2 4 8 10 11 11 10 8 6 6 7 6 6 5 6 5 4 3 2 1 1 2 2 3 4 4 5 5 5 6 6 7 7 7 7 7 7 7 6 6 5 6 5 6 6 7 7 6 6 7 9 10 11 11 8
8 9 8 5 5 5 6 7 5 2 2 6 8 10 9 9 8 6 5 6 6 6 6 5 4 4 3 2 2 1 3 3 4 5 5 5 5 6 6 6 7 7 7 10 12 11 10 8 6 6 5 5 5 7 7 7 8 8 8 10 12 10 11
7 8 7 6 6 7 8 8 9 11 9 7 7 8 9 8 8 8 7 6 6 6 5 4 5 7 5 2 2 2 2 3 4 4 5 6 6 6 7 7 6 11 13 13 13 13 13 13 13 9 7 5 6 6 6 8 8 7 8 10 11 11 12
6 6 5 7 8 11 13 13 13 11 8 5 6 8 10 10 8 7 8 8 7 5 5 4 7 6 6 6 4 4 3 4 4 4 5 6 7 7 7 7 7 8 10 10 11 12 13 14 14 14 15 14 10 8 6 7 7 7 9 10 11 11 12
4 5 8 10 9 9 10 10 10 10 11 11 8 8 10 10 9 8 7 7 7 6 5 6 8 7 6 6 5 3 3 3 4 5 5 7 7 7 7 7 6 5 6 8 8 9 11 13 14 15 15 15 15 15 14 10 9 8 8 10 11 12 12
5 6 8 9 9 9 10 11 11 12 13 11 9 10 9 10 10 9 9 9 7 6 5 7 8 7 6 5 3 2 3 4 5 6 6 7 8 7 7 6 6 5 6 11 11 9 9 9 11 14 15 15 15 15 15 16 15 12 7 10 10 12 12
6 7 8 8 9 11 11 12 12 11 9 10 11 9 8 9 9 9 8 8 7 6 5 6 8 6 3 2 4 3 3 5 5 6 7 8 7 7 7 7 7 7 6 7 7 8 8 9 8 9 9 9 9 11 14 16 16 18 15 10 10 12 10
7 6 8 9 9 10 11 10 11 10 11 12 11 11 10 9 9 9 8 7 7 5 4 2 2 1 1 3 6 4 5 5 5 6 7 8 8 8 8 7 8 8 8 7 6 8 9 9 9 9 10 10 9 9 9 9 8 8 8 8 10 12 11
7 7 8 9 9 10 10 11 12 9 8 8 8 8 6 8 8 8 7 6 6 5 2 3 2 1 2 5 6 4 5 6 6 7 7 7 7 6 6 7 7 10 11 10 10 13 13 11 12 12 13 12 10 10 10 10 13 13 13 10 10 10 9
7 8 8 8 9 9 9 8 6 6 9 9 9 9 9 8 8 8 7 6 6 4 2 2 2 2 3 5 4 4 5 6 6 7 7 7 7 7 7 7 8 11 11 11 12 13 13 14 13 13 13 13 11 10 10 8 12 15 15 17 17 18 19
8 8 8 10 9 8 6 6 8 7 10 10 9 9 8 8 7 7 8 7 6 5 3 2 3 3 3 5 4 5 5 6 7 7 7 7 6 6 8 15 15 12 10 10 11 11 11 12 13 13 13 15 17 16 14 9 7 9 13 16 17 18 19
9 9 9 7 6 6 3 2 4 6 9 10 9 8 7 8 6 5 6 6 6 6 4 3 4 4 4 5 4 3 4 5 6 8 7 9 8 9 8 10 15 14 14 15 16 15 17 15 15 15 16 17 18 18 14 11 9 9 10 12 13 14 14
7 8 8 8 9 9 9 9 7 7 5 6 7 6 7 6 7 6 5 6 5 5 5 4 4 6 5 6 6 4 4 6 7 9 8 9 9 8 9 9 10 13 15 16 16 17 17 17 15 16 15 15 17 18 12 11 11 12 13 13 14 14 16
7 7 8 8 7 7 7 11 10 8 6 6 5 4 4 5 6 6 5 5 5 5 5 4 5 5 6 7 7 5 4 6 7 6 8 9 8 8 8 8 8 11 15 16 16 17 17 18 18 15 16 16 16 16 16 15 18 18 17 17 16 15 14
8 9 9 11 12 10 7 8 8 8 7 7 7 4 1 3 5 5 4 4 4 5 5 5 4 5 7 8 8 8 5 6 7 8 11 8 8 9 10 11 11 13 15 17 17 17 19 19 20 15 16 19 21 20 18 15 14 13 14 14 13 14 14
10 9 10 12 12 10 9 10 8 7 7 6 6 6 4 2 4 4 3 3 3 4 4 3 5 5 7 9 9 9 10 9 11 9 10 11 10 13 12 13 13 17 16 17 19 19 20 21 19 17 20 20 21 21 20 13 15 14 14 14 14 14 14
10 10 11 10 11 13 10 9 7 7 7 7 6 6 3 3 3 3 2 4 4 4 3 3 5 7 7 9 9 10 11 11 12 11 10 9 11 13 13 13 14 19 21 22 23 22 21 21 17 22 23 23 23 21 15 15 13 14 14 15 16 16 16
Wind_Direction
172 185 176 169 139 126 127 139 108 66 42 55 83 65 78 87 91 83 87 83 80 79 75 70 75 70 72 57 54 56 46 44 51 73 65 32 55 12 349 21 11 350 326 291 277 262 286 285 304 294 211 90 5 255 228 243 235 232 234 232 238 233 226
189 162 130 120 137 132 129 116 108 66 52 43 65 88 74 92 87 93 86 86 85 83 87 87 80 75 75 76 67 60 61 50 48 56 65 44 42 34 11 18 9 16 315 263 314 338 309 314 306 312 321 326 319 249 178 191 218 215 214 216 217 224 219
160 99 125 130 137 138 151 157 128 103 87 86 48 69 85 94 102 97 95 96 99 95 87 91 85 76 73 74 74 81 79 75 49 60 73 62 51 47 50 33 36 1 11 22 36 7 319 267 286 309 306 318 319 307 326 308 271 253 231 210 210 220 223
183 158 138 141 135 132 161 185 169 160 129 125 116 93 101 117 111 110 109 104 98 100 102 96 90 92 82 81 78 76 73 78 69 69 63 51 52 52 46 43 48 39 30 23 8 4 354 334 342 326 329 324 313 308 319 337 325 299 261 243 231 218 218
174 176 177 181 182 178 179 181 183 133 145 124 107 123 106 116 122 116 118 111 105 98 92 102 108 103 98 85 72 76 78 77 80 78 74 65 61 58 48 33 40 27 36 33 1 349 347 331 328 314 307 328 302 273 307 311 285 287 292 267 240 242 229
186 185 186 187 184 179 177 164 161 180 173 156 195 151 169 147 130 124 124 118 112 109 114 100 104 105 99 91 85 79 81 84 88 89 76 71 74 66 54 43 42 30 23 357 348 338 333 326 309 309 303 325 291 297 298 299 300 290 267 272 275 243 246
191 190 193 190 192 185 174 180 180 181 181 190 175 190 180 162 145 136 125 122 124 126 124 119 116 108 101 101 98 88 92 105 89 88 95 91 71 61 63 52 47 38 4 355 346 347 345 339 330 321 317 297 282 283 292 292 268 310 302 291 267 271 266
188 190 199 198 186 183 187 183 189 175 181 191 185 181 156 152 147 135 136 129 131 128 125 124 119 106 105 95 88 90 80 101 88 95 94 91 75 64 52 39 20 17 4 348 352 344 340 336 330 323 318 310 302 293 299 271 281 255 263 267 262 271 269
195 193 193 199 204 195 187 186 189 186 194 182 180 152 172 153 153 148 139 138 140 140 141 138 128 116 114 98 84 89 90 120 94 89 110 90 97 119 96 99 52 349 329 334 345 337 335 331 328 333 326 308 295 291 283 289 289 279 249 268 282 252 265
193 193 195 200 200 199 191 198 189 194 182 178 175 168 157 162 152 149 145 148 144 132 126 123 121 124 121 111 122 117 123 145 132 143 158 135 191 275 14 101 145 230 277 302 323 321 312 316 316 308 314 311 318 299 293 278 266 275 296 305 329 290 339
195 203 201 200 194 186 202 197 191 163 188 189 175 169 153 154 154 150 142 143 140 143 141 131 117 121 104 95 114 104 133 142 130 131 174 166 194 181 182 307 168 281 263 288 280 284 298 304 303 311 311 314 310 301 298 289 286 274 290 286 265 280 331
202 205 207 198 181 194 200 196 195 197 170 169 161 152 152 154 151 149 142 147 151 154 139 129 125 108 106 103 101 93 98 105 97 37 235 225 242 163 177 240 236 240 251 249 268 287 295 297 297 307 318 326 323 309 300 294 288 264 238 294 328 341 328
202 201 202 191 193 203 205 194 194 183 188 170 172 160 158 157 155 150 155 150 156 142 127 111 109 118 106 108 125 117 137 109 101 329 326 339 329 330 301 277 261 251 250 236 247 260 266 272 269 279 303 322 314 308 311 303 284 281 287 291 299 307 311
211 208 204 199 204 210 203 196 194 192 156 179 163 160 160 160 157 155 154 164 145 135 116 104 112 113 104 115 123 130 127 129 132 145 206 316 318 315 308 301 296 285 272 256 245 244 249 246 253 245 244 276 289 300 303 300 292 293 293 272 285 292 304
215 209 208 205 210 211 204 199 187 158 182 181 169 164 161 156 151 149 147 136 112 109 114 118 129 110 108 100 96 120 113 119 122 145 156 243 277 262 263 279 288 286 284 271 270 262 236 244 241 241 244 255 275 280 273 287 292 298 292 300 297 342 325
218 213 213 214 215 211 203 189 173 179 179 168 177 164 157 150 148 143 129 121 117 119 130 124 127 113 120 122 115 106 123 130 144 172 187 241 256 258 268 259 267 269 272 266 262 252 250 250 242 240 249 232 264 267 267 267 293 293 297 300 324 310 315
212 218 217 216 213 208 193 187 175 176 170 156 163 158 147 145 138 134 122 115 124 135 132 125 116 125 138 141 141 159 157 139 157 183 210 241 261 261 262 268 264 268 269 261 254 245 242 240 242 245 261 266 240 247 246 246 272 285 292 297 301 307 310
223 222 224 222 216 203 194 182 174 171 157 159 157 143 136 137 131 129 137 146 145 148 152 138 131 137 144 143 147 158 170 175 177 212 230 243 256 259 262 255 263 263 267 273 270 258 241 231 229 254 284 287 278 267 255 252 257 257 282 287 295 291 301
220 227 237 263 234 210 197 188 180 171 163 158 153 153 150 153 146 145 143 151 153 153 140 140 142 146 127 127 127 145 139 210 275 261 265 260 255 252 252 255 257 251 251 259 272 275 271 260 248 262 274 277 280 284 280 263 229 241 265 280 287 294 287
226 220 201 222 217 206 198 194 184 173 164 153 152 151 152 147 149 144 150 142 151 150 143 125 114 122 119 109 116 91 15 321 296 293 279 276 273 266 262 262 259 257 256 253 261 268 273 274 275 276 273 270 274 276 276 277 277 277 278 279 280 278 287
210 216 214 213 206 206 228 313 260 167 155 153 155 154 154 153 152 144 150 152 142 129 127 128 129 115 111 112 85 17 309 291 289 291 289 285 286 281 277 275 271 265 260 254 253 260 257 267 264 275 276 286 286 281 273 268 263 268 277 281 279 283 277
209 218 214 183 165 140 107 99 82 354 259 172 159 151 145 141 137 130 130 131 131 135 139 152 158 160 146 142 149 218 278 290 290 289 289 280 275 272 270 268 270 267 267 271 270 270 270 269 269 268 257 251 260 267 274 274 273 271 269 271 278 279 280
204 209 197 163 137 122 119 136 167 182 189 173 156 143 137 141 142 146 141 136 137 143 147 158 167 161 162 162 178 191 219 247 258 267 274 281 273 266 262 260 261 264 268 271 273 274 274 272 266 260 261 242 248 254 258 268 268 269 270 269 271 275 277
203 198 165 146 153 158 168 175 176 166 152 161 166 154 143 143 146 147 145 148 153 155 160 169 167 169 175 182 176 194 206 241 248 255 259 264 271 269 267 259 257 263 266 270 270 268 267 265 262 262 260 256 251 245 255 253 252 255 263 267 270 267 267
193 177 168 178 179 175 172 171 166 162 159 161 176 162 152 152 148 144 143 150 157 165 169 180 175 186 198 206 201 199 210 238 257 262 260 263 261 264 268 268 262 260 261 261 263 264 262 259 258 258 256 254 254 251 245 247 258 256 247 260 262 261 267
197 183 190 187 182 176 176 171 166 169 175 162 152 159 155 144 146 146 149 156 164 172 169 187 188 199 209 217 246 249 245 258 267 265 267 264 264 266 266 268 269 257 256 258 264 266 267 267 261 259 257 256 254 249 249 247 244 246 253 253 256 259 253
212 197 193 190 187 187 181 180 179 173 157 149 151 147 147 143 143 148 155 157 160 171 182 195 200 207 214 268 283 299 281 281 274 267 268 267 267 269 268 271 274 271 261 261 261 265 265 265 265 264 262 256 255 253 250 244 241 242 242 245 250 256 254
224 200 194 194 191 194 191 180 176 168 161 156 150 149 150 149 156 155 154 151 154 170 201 193 128 99 288 288 298 313 294 290 279 273 267 266 266 269 273 271 270 271 272 267 259 261 266 264 268 266 263 259 254 251 248 246 237 236 235 236 246 252 257
225 203 194 195 194 193 190 184 178 164 152 143 139 135 134 140 145 151 155 148 146 173 187 97 158 196 283 295 314 314 307 293 288 279 277 273 275 272 271 268 271 276 278 276 270 268 269 274 274 273 270 267 263 257 255 247 247 246 249 249 249 252 254
225 207 195 191 196 194 182 171 166 163 144 142 139 141 147 153 155 151 152 152 153 170 196 196 181 223 285 306 324 314 305 296 284 284 281 284 280 277 273 270 271 279 277 277 274 268 267 267 273 270 270 270 266 263 259 252 244 244 246 250 254 258 262
215 202 192 194 192 187 176 164 158 162 146 143 140 148 149 143 149 151 151 157 158 157 199 223 206 250 286 307 308 301 292 292 294 289 290 281 277 269 268 274 281 283 281 280 279 274 274 275 278 273 271 272 274 273 272 261 252 249 244 249 251 255 257
207 196 188 175 150 136 117 159 165 160 149 143 143 143 141 141 140 134 136 144 155 145 180 212 220 250 269 283 292 286 296 296 301 298 294 295 289 287 279 273 273 275 279 282 283 285 286 285 282 280 279 278 275 274 274 275 258 258 257 262 259 255 252
201 183 166 149 144 137 129 114 100 79 73 98 128 140 139 136 141 139 134 137 150 157 172 225 227 238 257 275 287 302 303 311 297 296 292 291 292 282 276 273 269 264 265 268 269 269 266 263 266 274 276 272 273 273 280 273 270 275 275 269 268 263 261
158 146 142 133 116 112 130 136 130 121 106 75 80 82 112 118 124 137 146 143 148 184 193 206 239 240 268 280 287 296 281 269 277 276 289 291 285 284 281 274 273 270 268 267 265 265 263 261 259 260 263 267 267 274 279 276 278 273 271 270 267 266 262
141 133 129 126 124 118 99 81 92 108 111 115 107 86 52 136 133 136 142 178 201 204 218 216 246 270 266 267 270 279 278 264 283 294 298 287 283 280 280 286 286 281 278 278 277 274 272 269 265 263 264 262 265 265 267 269 270 271 270 268 265 260 257
135 133 132 129 119 106 103 108 104 100 102 95 111 127 172 173 141 138 167 238 243 254 252 249 246 261 270 275 283 291 290 294 296 294 295 292 289 291 290 289 288 288 285 281 279 277 275 273 272 271 269 268 268 268 267 264 264 261 260 263 263 261 259
130 127 124 117 114 120 119 116 113 124 131 137 137 133 152 140 117 146 213 295 288 268 261 267 276 264 273 280 285 285 287 289 295 299 294 287 293 294 296 296 294 291 286 283 280 278 276 272 270 268 266 264 262 261 260 265 262 261 260 258 257 256 254